Theta_e
321 322 320 321 321 318 322 320 322 330 330 326 325 327 332 324 336 338 312 318 327 335 335 337 337 337 337 336 334 334 333 333 335 335 335 336 336 337 337 336 336 335 335 335 336 335 333 329 325
320 321 321 318 323 319 317 317 320 325 325 315 317 319 320 324 310 308 319 320 327 332 335 335 336 336 336 335 335 335 335 335 335 335 335 334 335 335 336 335 334 335 335 334 336 336 336 335 330
317 318 322 327 322 322 316 316 318 324 321 322 320 312 314 316 308 309 313 323 324 328 333 334 333 334 334 333 333 333 333 333 333 333 333 331 331 331 331 331 330 331 332 333 333 335 334 334 334
315 318 319 328 332 325 317 316 324 325 324 320 319 320 307 307 308 310 318 321 320 322 328 332 332 332 332 332 333 332 332 331 331 329 327 323 323 324 323 323 323 324 325 326 325 328 327 329 331
315 318 328 330 330 327 322 323 323 325 325 324 317 319 311 306 308 309 317 316 316 315 315 316 318 320 322 325 326 327 326 323 319 315 313 311 310 310 309 309 308 309 309 311 312 313 315 317 320
316 318 328 332 332 329 327 325 324 325 325 324 318 312 310 306 307 310 313 313 313 312 309 309 309 310 311 312 313 312 310 308 307 305 305 305 305 304 304 303 308 307 305 306 307 306 308 308 309
320 321 327 329 332 329 327 321 325 325 324 323 313 316 308 304 307 309 311 311 310 309 306 305 304 303 303 303 304 304 304 302 301 301 301 302 303 302 301 301 305 308 308 310 312 312 311 309 306
314 320 325 325 332 331 325 319 320 322 322 313 311 317 314 303 307 308 309 309 308 306 303 301 300 300 300 300 300 300 300 300 300 300 301 302 302 301 301 301 302 303 304 308 309 309 309 302 301
314 320 325 328 326 326 320 320 311 310 314 312 311 310 306 306 305 305 305 305 305 304 301 300 300 300 300 300 300 300 301 301 301 301 301 301 301 301 300 300 300 300 300 301 305 304 301 300 300
318 320 323 322 319 317 311 314 314 310 309 309 307 304 303 304 302 300 301 301 302 303 303 302 302 302 300 301 301 301 302 302 302 301 301 300 300 300 300 300 300 300 300 300 301 301 301 300 300
313 321 319 316 311 308 309 311 308 309 310 309 310 305 301 300 300 300 300 301 302 303 303 303 302 302 301 301 302 302 302 301 302 302 301 301 301 300 300 300 300 300 300 300 300 300 300 300 300
316 315 316 314 308 308 310 304 307 307 313 310 306 303 300 301 300 300 299 300 302 302 303 302 302 302 301 301 302 302 302 302 302 301 301 301 301 300 300 300 300 300 300 299 299 299 300 300 300
314 312 311 307 305 304 304 305 307 306 306 304 304 301 301 302 301 301 300 300 301 302 303 302 302 301 301 301 301 302 302 302 301 301 301 301 301 300 300 300 300 300 299 299 299 300 300 300 300
309 310 308 306 304 303 304 305 305 308 306 304 301 301 301 301 301 300 299 300 301 302 302 302 302 302 301 301 301 302 301 301 301 301 301 301 301 301 300 300 300 299 298 299 299 299 299 299 299
305 308 309 307 304 304 300 307 303 308 305 304 302 300 301 301 301 300 301 300 301 302 303 302 302 302 301 301 301 301 301 301 301 300 300 301 301 301 300 300 299 298 298 299 299 299 298 298 298
307 306 311 308 303 304 306 309 310 303 303 305 302 301 300 301 301 301 301 301 301 301 302 302 302 302 301 301 301 301 301 301 301 300 300 301 301 301 300 299 299 298 299 298 298 298 298 297 297
305 309 307 309 302 302 304 309 309 300 300 300 300 300 301 300 300 301 301 302 302 302 302 302 302 302 301 301 301 301 301 301 300 300 300 301 301 301 300 299 298 298 298 298 297 297 297 296 296
307 305 306 308 304 301 300 302 306 304 300 299 297 296 297 300 301 301 301 302 302 302 303 302 302 302 302 301 301 300 300 300 300 301 301 301 301 300 300 299 298 298 298 297 297 296 296 295 295
303 305 305 302 301 302 301 301 303 303 299 297 299 299 298 299 301 301 301 301 301 301 301 302 302 302 301 301 300 300 300 300 300 301 301 300 301 300 299 298 298 298 297 296 296 295 295 294 294
302 301 302 300 300 300 299 299 300 301 300 300 301 301 300 300 299 298 298 300 299 300 301 301 302 302 301 301 300 300 300 299 300 301 301 301 300 300 299 298 298 297 297 296 295 295 294 293 293
298 299 300 301 301 299 299 301 301 301 300 300 300 302 301 300 300 297 296 298 299 299 300 300 301 302 302 301 300 300 300 299 300 301 300 300 300 300 298 298 298 297 296 295 294 294 293 293 292
297 297 299 301 300 298 301 300 301 302 302 302 302 301 300 299 299 298 297 297 298 299 300 300 301 301 302 301 300 300 300 299 300 300 299 300 300 299 298 297 297 296 296 295 294 293 293 292 291
298 299 300 300 299 299 300 301 299 300 302 303 303 300 299 299 298 297 297 297 298 299 299 299 300 301 301 301 301 300 300 300 299 299 300 300 299 298 298 297 296 296 295 294 294 293 292 291 291
297 300 301 299 298 297 298 299 302 300 302 305 305 303 302 298 296 295 296 297 297 298 299 299 299 300 300 301 300 300 300 299 299 299 299 299 298 298 297 296 296 295 295 294 294 293 292 291 290
298 297 299 297 295 300 298 299 301 301 302 303 304 303 302 300 297 295 294 295 297 297 297 298 299 299 299 300 300 299 300 300 299 299 299 298 298 297 297 296 296 295 294 294 293 292 291 290 289
297 298 300 298 302 303 300 301 302 301 301 302 301 301 300 300 297 296 294 295 296 296 297 298 298 299 299 299 300 300 300 300 299 299 299 298 297 297 296 296 295 295 294 294 293 291 290 289 289
297 300 299 301 294 301 302 301 300 302 302 302 301 300 300 300 298 297 296 294 295 296 297 298 298 299 299 300 300 300 300 300 299 299 298 298 297 297 296 295 295 294 294 293 292 290 289 289 288
296 297 300 298 296 299 301 302 302 303 304 303 301 300 298 298 298 297 296 295 295 296 297 297 298 299 299 299 299 300 300 300 299 298 298 298 297 296 296 295 295 294 293 293 291 290 289 288 288
296 297 296 297 300 301 303 303 300 301 301 304 301 299 298 297 296 295 295 294 295 296 297 298 298 298 299 299 300 300 300 299 299 298 298 298 297 296 295 295 294 294 294 292 290 289 288 288 288
294 297 298 299 298 301 304 304 303 302 301 301 303 302 300 297 296 294 294 294 294 296 297 298 298 298 299 299 299 299 299 299 298 298 298 297 296 296 295 295 294 293 293 291 289 289 288 288 288
Wind_Speed
17 20 10 4 3 4 4 6 3 2 0 1 2 5 8 2 5 4 8 11 19 22 18 16 13 11 10 9 9 8 6 5 3 2 0 1 2 5 1 2 4 5 5 5 5 5 5 6 6
14 14 4 2 3 0 5 5 6 5 4 8 4 2 0 4 2 5 11 18 20 20 20 17 16 14 12 11 9 8 8 6 4 4 3 1 1 1 3 3 1 0 2 3 5 5 6 6 7
11 5 2 3 3 6 5 5 6 3 5 4 4 1 6 4 2 13 7 25 21 20 19 18 16 14 12 12 11 10 9 9 7 6 5 1 1 1 1 2 2 1 1 2 5 7 6 5 7
4 5 3 2 9 7 6 5 4 3 3 5 3 3 1 3 6 13 24 25 22 20 18 18 16 14 13 13 13 12 12 10 8 7 5 3 2 2 2 3 3 3 3 4 5 6 7 6 5
3 3 1 3 7 6 5 5 5 7 4 5 7 4 3 2 6 20 30 25 23 20 18 16 15 14 13 13 13 12 11 10 9 7 6 5 4 4 3 4 4 5 5 6 7 8 9 9 9
2 3 2 5 9 6 5 6 5 5 5 2 3 6 4 3 17 27 28 25 20 20 18 16 15 15 14 14 13 12 11 10 9 8 7 6 4 3 2 1 3 3 3 4 6 6 6 7 8
5 4 5 5 10 9 6 5 6 10 5 6 4 8 1 4 22 25 25 22 19 17 17 17 16 15 14 13 13 12 11 9 9 8 7 6 5 2 1 0 2 4 5 5 7 7 8 8 7
3 4 4 6 9 14 6 8 4 8 9 3 6 6 5 7 25 24 23 22 20 18 16 17 16 16 15 14 14 12 11 10 9 7 7 6 4 3 3 3 2 4 5 5 6 8 8 8 8
3 2 6 6 8 6 2 4 3 1 5 3 6 4 2 22 27 25 23 21 21 20 19 19 19 18 17 16 14 13 11 10 9 7 6 5 4 3 2 2 3 3 4 5 6 7 8 10 11
5 5 7 5 4 4 4 4 3 2 4 5 3 1 6 32 31 24 22 22 27 27 26 23 22 20 18 16 15 13 12 10 9 7 5 4 3 2 1 1 2 3 4 5 6 8 9 12 12
5 6 4 3 3 2 3 4 3 4 6 7 12 7 8 11 18 20 22 26 34 31 27 26 24 22 20 18 17 15 13 11 10 7 5 4 2 2 1 1 3 4 5 6 7 9 11 12 14
3 8 6 4 4 2 4 5 5 8 7 1 9 8 10 14 16 21 21 29 31 31 30 28 25 24 22 19 17 15 14 11 10 7 6 4 2 1 1 1 4 6 7 8 10 11 12 13 14
6 6 6 5 6 6 3 9 8 9 11 6 3 10 16 17 17 23 24 27 31 32 32 30 27 26 23 22 18 17 15 12 11 8 7 6 3 2 1 2 4 7 9 11 11 12 13 15 17
5 4 4 6 6 5 6 4 4 9 13 10 8 12 14 16 20 17 20 28 34 35 34 32 30 27 24 23 20 19 15 13 12 9 8 6 4 3 2 2 4 6 9 10 12 13 14 16 18
2 5 7 7 5 6 5 9 14 17 6 12 12 11 13 17 17 21 34 31 39 40 36 35 33 30 27 25 22 19 16 14 12 10 9 8 6 4 3 3 5 6 8 9 9 11 13 14 17
3 1 3 1 5 3 6 11 6 3 10 16 10 10 12 16 19 28 29 32 36 38 39 36 35 33 30 27 24 21 18 16 13 11 10 9 8 6 3 4 5 6 7 8 9 12 14 15 20
2 5 6 7 8 3 6 9 3 2 6 9 10 11 12 13 14 25 28 34 39 42 41 39 37 35 32 28 25 22 18 16 14 12 12 10 9 6 3 4 6 5 7 8 10 11 13 17 18
6 6 5 6 5 4 5 18 14 9 6 11 11 10 11 14 22 24 30 37 39 41 42 41 40 37 34 29 26 22 20 18 16 14 13 12 10 7 4 5 6 5 6 7 9 11 12 13 17
1 4 5 3 3 5 9 14 25 10 7 12 15 14 15 18 16 23 32 34 35 38 40 41 43 41 37 34 30 25 24 22 19 17 15 13 12 9 6 5 6 5 6 6 9 11 12 9 20
6 5 8 6 2 5 9 17 21 14 12 19 20 20 20 15 12 13 22 29 32 35 40 42 45 45 42 40 35 27 27 23 20 17 16 15 14 11 8 7 5 5 5 5 6 8 8 7 14
6 8 4 6 2 5 7 13 10 5 7 11 12 19 16 16 16 14 15 27 31 35 40 39 44 47 45 41 35 24 22 15 21 21 20 19 16 13 9 8 6 5 5 4 4 4 7 8 6
6 6 4 2 2 5 2 9 8 7 11 7 13 10 13 13 12 13 16 17 30 35 37 43 45 47 45 43 40 37 28 19 24 26 22 19 18 14 10 9 7 6 6 4 3 2 3 5 6
5 2 3 2 1 5 2 3 7 3 9 10 9 8 10 10 11 13 16 22 32 34 38 41 45 46 45 45 44 41 33 27 18 21 21 20 18 15 12 10 8 7 6 5 4 3 3 5 6
7 6 6 4 2 3 8 7 15 6 7 3 4 5 5 7 8 8 11 20 24 28 34 38 40 45 46 47 45 43 39 30 21 21 22 21 19 16 14 11 9 8 8 7 6 5 5 6 8
3 7 1 3 2 7 0 4 9 10 12 6 7 9 6 5 6 7 9 10 19 26 31 35 38 36 44 45 46 45 41 36 31 28 26 23 20 19 17 13 11 10 9 8 7 6 7 8 9
7 7 6 8 5 4 3 8 7 9 9 8 8 10 8 3 3 6 7 8 15 24 29 34 36 34 41 44 46 45 42 39 33 29 26 23 20 17 15 14 12 11 10 10 9 8 9 9 10
7 6 2 6 3 3 5 8 9 14 12 6 9 5 7 4 3 5 4 6 11 19 26 32 32 32 40 45 44 44 43 39 35 29 25 22 19 18 16 15 13 12 12 11 9 9 10 11 11
4 4 3 2 3 5 5 6 7 8 8 5 8 8 7 4 5 4 3 4 10 16 22 27 30 35 39 40 42 43 41 38 34 29 26 24 20 18 17 16 14 13 13 11 10 10 10 12 11
4 4 1 3 4 5 2 6 7 9 7 8 7 5 7 6 6 6 3 4 9 11 17 24 27 30 33 38 40 39 38 37 32 30 28 26 22 20 18 17 15 15 14 12 10 10 11 11 12
2 5 7 5 6 4 2 9 3 6 6 5 3 4 4 6 6 4 3 3 6 12 17 23 27 32 35 35 36 37 36 35 34 33 30 27 24 21 19 17 16 16 15 12 11 11 11 11 12
Wind_Direction
333 339 349 47 49 63 265 258 267 202 252 266 86 152 191 112 169 202 152 152 156 157 154 155 165 166 162 164 169 171 180 176 175 188 264 56 94 75 26 262 262 282 299 310 317 317 323 323 331
335 343 28 85 106 92 267 249 239 230 169 117 108 54 187 207 159 138 136 173 160 160 162 156 162 161 155 155 155 159 150 155 140 156 161 155 72 88 80 86 157 123 302 292 306 308 289 301 312
329 11 74 119 156 197 225 226 245 296 166 166 141 63 155 207 200 172 188 165 162 162 170 170 162 159 158 163 169 172 179 186 196 195 203 215 299 274 278 273 275 324 293 300 346 349 342 318 289
324 31 31 133 237 243 212 232 219 163 251 234 150 211 270 219 186 180 164 166 164 162 165 170 172 172 172 177 182 187 194 200 204 199 210 229 243 249 261 267 277 283 292 316 320 304 311 298 306
51 64 217 234 249 251 244 245 179 202 235 205 166 216 249 251 170 165 164 169 169 162 166 168 171 168 173 178 181 185 187 190 194 201 205 219 226 238 261 280 291 288 289 288 291 290 291 294 295
63 94 161 230 244 251 242 227 182 216 213 203 151 147 229 227 166 165 168 170 176 171 170 174 177 180 182 185 188 186 190 193 196 202 204 205 200 218 212 277 25 357 323 328 323 324 326 313 310
160 140 220 230 253 278 234 172 187 209 197 235 139 164 261 207 173 170 173 173 174 176 177 180 183 187 189 188 190 193 195 187 181 179 178 176 170 143 146 98 51 24 13 15 19 12 358 349 333
167 145 223 219 233 264 221 185 225 169 222 95 157 199 229 199 172 171 174 174 175 179 185 181 178 175 172 168 169 170 171 172 171 169 164 151 145 123 93 58 51 28 18 19 16 9 2 349 336
140 170 234 228 170 248 231 218 177 197 154 218 192 172 290 167 166 163 166 174 179 183 183 178 174 168 165 166 165 165 163 167 161 154 156 155 156 136 102 55 43 21 12 8 5 2 350 344 336
166 183 236 203 199 238 286 241 234 210 199 229 233 165 133 157 164 166 176 181 185 187 185 185 182 178 175 171 174 171 172 176 173 167 166 167 156 144 94 41 39 7 6 358 354 350 342 333 328
189 218 209 251 218 208 259 289 302 207 238 221 211 171 156 161 179 184 189 190 190 190 188 189 190 185 182 181 182 182 182 182 182 182 179 176 165 155 151 351 350 345 348 343 343 338 336 335 332
202 235 224 225 205 216 230 306 266 202 232 233 233 164 163 181 191 194 196 198 196 194 193 192 191 191 189 191 191 191 191 188 187 192 191 195 201 203 210 353 344 344 343 344 339 335 338 337 333
206 222 217 218 216 233 306 241 239 255 249 261 143 163 186 194 201 204 203 202 200 198 198 197 193 194 192 191 194 195 194 194 193 200 200 204 208 231 287 343 350 345 343 335 334 337 340 339 334
317 268 255 244 236 236 212 245 142 239 232 232 186 197 198 199 202 198 199 204 204 204 200 199 199 197 195 197 197 198 196 195 199 208 212 212 217 225 286 316 342 344 333 332 334 338 340 340 334
324 319 303 235 211 233 165 283 228 245 201 232 207 209 210 214 201 203 204 204 205 207 203 202 201 199 200 201 201 200 198 201 202 207 215 218 226 225 282 313 338 334 327 327 330 334 338 339 336
301 339 292 323 138 240 154 271 238 194 187 232 228 226 220 217 212 215 212 209 208 206 205 205 203 201 203 202 201 200 198 201 207 210 217 218 225 231 256 303 322 328 325 327 335 343 343 344 341
240 247 216 306 189 143 197 266 274 118 171 237 238 237 228 230 226 220 214 211 211 211 207 206 205 203 203 203 203 202 201 203 208 214 214 217 222 241 260 306 316 324 323 328 342 350 350 345 342
204 228 242 226 200 195 238 261 267 266 259 260 257 243 235 230 230 217 211 214 213 212 210 208 205 205 203 202 202 200 202 204 207 213 216 218 222 234 245 293 300 311 319 330 342 350 354 352 347
286 225 249 274 208 205 233 250 269 253 253 259 255 249 236 231 231 211 210 211 208 209 205 206 204 204 201 197 195 197 201 205 209 208 214 218 223 222 244 267 281 299 313 333 348 352 356 6 357
259 272 264 269 177 198 274 259 262 256 235 241 240 243 237 233 212 206 196 197 199 198 202 202 205 202 201 200 198 197 201 212 214 211 213 215 220 221 238 249 260 282 294 322 350 -0 360 358 8
222 221 236 246 296 228 304 279 263 256 242 244 242 239 244 227 217 202 195 195 193 194 196 197 201 205 202 201 197 192 197 205 206 206 212 214 216 224 233 243 243 258 274 306 343 356 2 356 352
245 208 212 242 24 255 7 286 284 270 261 265 263 223 236 224 219 202 197 193 194 197 195 198 200 205 203 201 199 198 193 189 207 210 208 209 211 220 226 232 236 244 257 279 305 326 344 332 339
225 93 123 83 134 345 197 280 257 251 279 259 265 246 238 227 207 200 196 196 197 190 190 193 199 203 203 203 205 204 204 207 205 205 204 204 211 218 222 224 229 234 244 262 261 270 297 308 306
143 80 47 55 82 293 184 179 265 215 228 256 274 281 273 226 211 202 195 191 191 188 187 189 193 199 204 204 206 208 209 206 198 194 195 202 209 215 217 220 221 230 242 244 250 265 287 296 294
110 106 314 347 3 233 73 194 273 287 264 242 269 266 304 240 206 202 188 183 180 180 183 185 189 192 202 204 208 211 213 212 210 205 204 203 206 212 214 217 217 225 236 237 244 263 283 293 300
195 170 164 199 200 248 132 237 250 243 285 271 267 273 285 236 208 215 200 183 180 182 183 185 189 191 199 204 209 213 215 215 216 216 212 213 216 218 213 216 215 221 228 230 243 266 287 301 312
181 213 174 103 63 35 222 280 287 262 266 268 265 296 277 286 235 239 198 187 181 183 188 189 190 193 201 206 210 213 215 216 217 217 216 217 217 215 212 214 214 219 222 229 247 273 292 303 316
155 170 97 346 169 236 264 266 233 289 267 284 260 258 270 270 266 247 227 193 195 195 197 195 197 196 202 207 212 215 217 218 219 217 216 216 218 215 214 214 214 218 220 231 253 276 293 306 317
153 190 175 138 172 178 253 256 217 239 247 260 281 282 270 273 264 274 256 203 192 195 194 200 201 200 205 211 214 216 219 218 218 218 219 219 218 218 218 218 217 218 221 233 255 276 294 300 313
271 209 167 145 225 243 169 251 193 224 275 194 276 328 266 241 246 257 252 229 187 190 195 202 204 208 213 213 216 218 221 217 216 218 219 219 219 221 221 218 219 219 223 235 255 273 286 298 313